Location: Newark
(37.3144°N, 138.7950°E)
Time: 02:31:20
(UTC+00:00)

Hubble Space Telescope - Visible Passes

Search period start: 21 August 2019 00:00
Search period end: 31 August 2019 00:00
Orbit: 536 x 540 km, 28.5° (Epoch: 20 August)

Date Brightness Start Highest point End Pass type
(mag) Time Alt. Az. Time Alt. Az. Time Alt. Az.
21 Aug 2.7 10:24:01 10° SW 10:26:51 18° SSW 10:29:17 12° SSE visible
22 Aug 2.9 10:13:38 10° SW 10:16:12 16° SSW 10:18:45 10° SSE visible
23 Aug 3.1 10:03:24 10° SW 10:05:32 14° SSW 10:07:42 10° SSE visible
24 Aug 3.2 09:53:22 10° SW 09:54:53 12° SSW 09:56:22 10° S visible
